Kerkyra, Greece

4:51 AM EEST on August 17, 2018 (GMT +0300)
Ioannis Kapodistrias

Weather History for LGKR - August, 2018

Change the Weather History Date:

Friday, August 10, 2018

  Actual Average Record
Temperature  
Mean Temperature 82 °F -  
Max Temperature 92 °F 86 °F 103 °F (2017)
Min Temperature 72 °F 64 °F 62 °F (2005)
Cooling Degree Days 17    
Growing Degree Days 32 (Base 50)    
Moisture  
Dew Point 71 °F    
Average Humidity 67    
Maximum Humidity 94    
Minimum Humidity 37    
Precipitation  
Precipitation 0.00 in 0.05 in - ()
Sea Level Pressure  
Sea Level Pressure 29.99 in    
Wind  
Wind Speed 4 mph ()    
Max Wind Speed 15 mph    
Max Gust Speed -    
Visibility 6.9 miles    
Events      
Averages and records for this station are not official NWS values.
T = Trace of Precipitation, MM = Missing Value Source: Averaged Metar Reports

Daily Weather History Graph

Daily Weather History Graph

Search for Another Location

Airport or City:

Astronomy

Aug. 10, 2018 Rise Set
Actual Time 6:47 AM EEST 8:43 PM EEST
Civil Twilight 6:18 AM EEST 9:12 PM EEST
Nautical Twilight 5:42 AM EEST 9:47 PM EEST
Astronomical Twilight 5:04 AM EEST 10:26 PM EEST
Moon 5:20 AM EEST (8/10) 8:09 PM EEST (8/10)
Length of Visible Light 14h 53m
Length of Day
13h 55m
Waning Crescent, 2% of the Moon is Illuminated
Aug 10
Waning Crescent
Aug 11
New
Aug 18
First Quarter
Aug 26
Full
Sep 3
Last Quarter

Hourly Weather History & Observations

Time (EEST) Temp. Heat Index Dew Point Humidity Pressure Visibility Wind Dir Wind Speed Gust Speed Precip Events Conditions
12:00 AM 81 °F - 71 °F 65% 29.98 in 6 mi Calm Calm - -   Scattered Clouds
12:20 AM 80.6 °F 84.6 °F 71.6 °F 74% 29.98 in - West 3.5 mph - N/A   Clear
12:50 AM 78.8 °F - 71.6 °F 78% 29.98 in - SW 3.5 mph - N/A   Clear
1:20 AM 78.8 °F - 71.6 °F 78% 29.98 in - WSW 2.3 mph - N/A   Clear
1:50 AM 77.0 °F - 69.8 °F 78% 29.98 in - West 2.3 mph - N/A   Clear
2:20 AM 77.0 °F - 69.8 °F 78% 29.98 in - Calm Calm - N/A   Clear
2:50 AM 75.2 °F - 71.6 °F 89% 29.98 in - SW 2.3 mph - N/A   Clear
3:00 AM 76 °F - 71 °F 80% 30.00 in 6 mi SW 2.3 mph - -  
3:20 AM 75.2 °F - 71.6 °F 89% 29.98 in - West 3.5 mph - N/A   Clear
3:50 AM 75.2 °F - 71.6 °F 89% 30.01 in - West 3.5 mph - N/A   Clear
4:20 AM 75.2 °F - 69.8 °F 83% 30.01 in - Calm Calm - N/A   Clear
4:50 AM 73.4 °F - 71.6 °F 94% 29.98 in - West 2.3 mph - N/A   Clear
5:20 AM 73.4 °F - 69.8 °F 88% 29.98 in - West 2.3 mph - N/A   Clear
5:50 AM 71.6 °F - 68.0 °F 88% 29.98 in - West 3.5 mph - N/A   Clear
6:20 AM 71.6 °F - 68.0 °F 88% 29.98 in 6.2 mi Calm Calm - N/A   Partly Cloudy
7:20 AM 71.6 °F - 68.0 °F 88% 29.98 in 6.2 mi West 3.5 mph - N/A   Partly Cloudy
7:50 AM 73.4 °F - 68.0 °F 83% 30.01 in 6.2 mi Calm Calm - N/A   Partly Cloudy
8:20 AM 75.2 °F - 68.0 °F 78% 30.01 in 6.2 mi Calm Calm - N/A   Partly Cloudy
8:50 AM 78.8 °F - 68.0 °F 69% 30.01 in 6.2 mi Calm Calm - N/A   Partly Cloudy
9:00 AM 80 °F - 67 °F 57% 30.01 in 12 mi Calm Calm - -   Scattered Clouds
9:20 AM 80.6 °F 83.9 °F 69.8 °F 70% 30.01 in 6.2 mi Variable 2.3 mph - N/A   Partly Cloudy
9:50 AM 84.2 °F 87.3 °F 68.0 °F 58% 30.01 in - SSE 6.9 mph - N/A   Clear
10:20 AM 84.2 °F 87.3 °F 68.0 °F 58% 30.01 in - SE 8.1 mph - N/A   Clear
10:50 AM 86.0 °F 90.4 °F 69.8 °F 58% 30.01 in - SE 8.1 mph - N/A   Clear
11:20 AM 86.0 °F 90.4 °F 69.8 °F 58% 30.01 in - SE 8.1 mph - N/A   Clear
11:50 AM 87.8 °F 90.4 °F 66.2 °F 49% 30.01 in - SE 8.1 mph - N/A   Clear
12:00 PM 88 °F - 65 °F 37% 30.03 in 12 mi SE 8.1 mph - -  
12:20 PM 87.8 °F 90.4 °F 66.2 °F 49% 30.01 in - SE 8.1 mph - N/A   Clear
12:50 PM 89.6 °F 92.2 °F 66.2 °F 46% 30.01 in 6.2 mi SE 8.1 mph - N/A   Partly Cloudy
1:20 PM 89.6 °F 92.2 °F 66.2 °F 46% 30.01 in 6.2 mi SE 8.1 mph - N/A   Partly Cloudy
1:50 PM 93.2 °F 98.8 °F 69.8 °F 46% 30.01 in 6.2 mi West 10.4 mph - N/A   Partly Cloudy
2:20 PM 93.2 °F 98.8 °F 69.8 °F 46% 30.01 in 6.2 mi WSW 9.2 mph - N/A   Partly Cloudy
2:50 PM 93.2 °F 98.8 °F 69.8 °F 46% 30.01 in 6.2 mi WSW 11.5 mph - N/A   Partly Cloudy
3:00 PM 92 °F - 70 °F 39% 30.01 in 12 mi WSW 11.5 mph - -   Scattered Clouds
3:20 PM 93.2 °F 98.8 °F 69.8 °F 46% 30.01 in 6.2 mi WSW 12.7 mph - N/A   Partly Cloudy
3:50 PM 91.4 °F 98.4 °F 71.6 °F 52% 29.98 in 6.2 mi West 12.7 mph - N/A   Partly Cloudy
4:20 PM 91.4 °F 98.4 °F 71.6 °F 52% 29.98 in 6.2 mi West 15.0 mph - N/A   Partly Cloudy
4:50 PM 91.4 °F 100.1 °F 73.4 °F 55% 29.98 in 6.2 mi WSW 11.5 mph - N/A   Partly Cloudy
5:20 PM 91.4 °F 100.1 °F 73.4 °F 55% 29.98 in 6.2 mi WSW 11.5 mph - N/A   Partly Cloudy
5:50 PM 93.2 °F 105.0 °F 75.2 °F 56% 29.98 in 6.2 mi WSW 11.5 mph - N/A   Partly Cloudy
6:20 PM 91.4 °F 102.5 °F 75.2 °F 59% 29.98 in 6.2 mi West 11.5 mph - N/A   Partly Cloudy
6:50 PM 89.6 °F 102.2 °F 77.0 °F 66% 29.98 in 6.2 mi West 13.8 mph - N/A   Partly Cloudy
7:20 PM 89.6 °F 102.2 °F 77.0 °F 66% 29.98 in 6.2 mi West 10.4 mph - N/A   Scattered Clouds
7:50 PM 87.8 °F 95.6 °F 73.4 °F 62% 29.98 in 6.2 mi West 8.1 mph - N/A   Scattered Clouds
8:20 PM 86.0 °F 93.4 °F 73.4 °F 66% 29.98 in 6.2 mi WSW 5.8 mph - N/A   Scattered Clouds
8:50 PM 86.0 °F 95.1 °F 75.2 °F 70% 29.98 in 6.2 mi WSW 4.6 mph - N/A   Partly Cloudy
9:00 PM 86 °F - 75 °F 64% 29.99 in 12 mi WSW 4.6 mph - -   Scattered Clouds
9:20 PM 84.2 °F 92.3 °F 75.2 °F 74% 29.98 in 6.2 mi Variable 3.5 mph - N/A   Scattered Clouds
9:50 PM 84.2 °F 90.9 °F 73.4 °F 70% 29.98 in 6.2 mi Calm Calm - N/A   Scattered Clouds
10:20 PM 84.2 °F 90.9 °F 73.4 °F 70% 29.98 in 6.2 mi South 3.5 mph - N/A   Scattered Clouds
10:50 PM 82.4 °F 88.2 °F 73.4 °F 74% 30.01 in 6.2 mi Variable 2.3 mph - N/A   Scattered Clouds
11:20 PM 82.4 °F 88.2 °F 73.4 °F 74% 30.01 in 6.2 mi Variable 2.3 mph - N/A   Scattered Clouds
11:50 PM 80.6 °F 86.2 °F 75.2 °F 84% 30.01 in 6.2 mi Variable 2.3 mph - N/A   Scattered Clouds